RESURS-P 2

Last updated on Thu Nov 21 2024 00:02:27 GMT+0000 (Coordinated Universal Time)

1 40360U 14087A 24325.54869318 .00117225 00000+0 61859-3 0 9992 2 40360 97.1392 54.8438 0003400 71.1673 288.9964 15.80306365554029
UTC large
Height (km)
Speed (km/s)
/
Latitude / Longitude
Inclination (degrees)
Orbital Period (minutes)
Azimuth
Elevation
Range (km)
Doppler Factor

Next 0 passes for location: London (51.5072 / 0.1276)

Sorry there are no passes over London.